FW0887 Weather Reports


Display with metric or nautical units.
time (UTC)temp
F
wind
direction
speed
MPH
gust
MPH
rain 1hr
in
rain 24hr
in
rain mn
in
humidity
%
barometer
mb
20260902123007 75 265 1.0 6.0 0.00 0.01 0.01 61 1020.4
20260902121504 74 222 3.0 7.0 0.00 0.01 0.01 62 1020.6
20260902120301 74 203 4.0 6.0 0.00 0.01 0.01 63 1022.2
20260902120002 73 238 0.0 8.0 0.00 0.01 0.01 63 1020.9
20260902114602 72 197 0.0 7.0 0.00 0.01 0.01 66 1021.1
20260902113100 71 213 1.0 7.0 0.00 0.01 0.01 65 1021.1
20260902111553 70 254 1.0 6.0 0.00 0.01 0.01 67 1021.3
20260902110231 71 203 2.0 3.0 0.00 0.01 0.01 67 1022.6
20260902110053 70 204 2.0 5.0 0.00 0.01 0.01 66 1021.4
20260902104556 71 192 2.0 6.0 0.00 0.01 0.01 67 1021.4
20260902103101 72 171 1.0 6.0 0.00 0.01 0.01 66 1021.5
20260902101549 71 217 2.0 6.0 0.00 0.01 0.01 66 1021.7
20260902100203 70 0.0 0.0 0.00 0.01 0.01 69 1022.9
20260902094543 69 209 0.0 0.0 0.00 0.01 0.01 67 1021.8
20260902093044 69 207 0.0 0.0 0.00 0.01 0.01 68 1022.0
20260902091600 68 213 0.0 0.0 0.00 0.01 0.01 70 1022.0
20260902090255 66 0.0 0.0 0.00 0.01 0.01 75 1023.0
20260902090036 67 213 0.0 0.0 0.00 0.01 0.01 74 1022.1
20260902084540 65 198 0.0 0.0 0.00 0.01 0.01 76 1022.0
20260902083028 64 270 0.0 0.0 0.00 0.01 0.01 79 1021.9
20260902081532 63 271 0.0 0.0 0.00 0.01 0.01 81 1022.0
20260902080206 62 0.0 0.0 0.00 0.01 0.01 88 1022.8
20260902080022 62 244 0.0 0.0 0.00 0.01 0.01 87 1021.7
20260902074517 61 269 0.0 0.0 0.00 0.01 0.01 89 1021.5
20260902073013 59 255 0.0 0.0 0.00 0.01 0.01 91 1021.7
20260902071526 58 263 0.0 0.0 0.00 0.01 0.01 92 1021.8
20260902070248 56 0.0 0.0 0.00 0.01 0.01 92 1022.7
20260902070008 56 271 0.0 0.0 0.00 0.01 0.01 92 1021.6
20260902064503 54 360 0.0 0.0 0.00 0.01 0.01 92 1021.9
20260902063001 51 271 0.0 0.0 0.00 0.01 0.01 91 1021.9
20260902061611 49 271 0.0 0.0 0.00 0.01 0.01 90 1021.9
20260902060128 49 0.0 0.0 0.00 0.01 0.01 90 1022.4
20260902060058 49 271 0.0 0.0 0.00 0.01 0.01 90 1022.0
20260902054556 48 271 0.0 0.0 0.01 0.01 0.01 90 1021.9
20260902053054 48 271 0.0 0.0 0.01 0.01 0.01 89 1022.0
20260902051551 48 271 0.0 0.0 0.01 0.01 0.01 89 1021.8
20260902050200 49 0.0 0.0 0.01 0.01 0.01 89 1022.2
20260902050052 48 271 0.0 0.0 0.01 0.01 0.01 89 1021.6
20260902044549 48 271 0.0 0.0 0.00 0.00 0.00 89 1021.7
20260902043054 49 271 0.0 0.0 0.00 0.00 0.00 89 1021.5
20260902041548 49 271 0.0 0.0 0.00 0.00 0.00 89 1021.5
20260902040122 50 0.0 0.0 0.00 0.00 0.00 89 1022.2
20260902040046 49 271 0.0 0.0 0.00 0.00 0.00 89 1021.4
20260902034545 49 271 0.0 0.0 0.00 0.00 0.00 89 1021.5
20260902033044 49 271 0.0 0.0 0.00 0.00 0.00 89 1021.4
20260902031542 49 271 0.0 0.0 0.00 0.00 0.00 88 1021.5
20260902030205 51 0.0 0.0 0.00 0.00 0.00 88 1022.3
20260902030041 50 271 0.0 0.0 0.00 0.00 0.00 88 1021.4
20260902024540 50 271 0.0 0.0 0.00 0.00 0.00 88 1021.4
20260902023038 51 271 0.0 0.0 0.00 0.00 0.00 88 1021.6
20260902021543 51 271 0.0 0.0 0.00 0.00 0.00 88 1021.6
20260902020117 52 0.0 0.0 0.00 0.00 0.00 88 1022.7
20260902020037 51 271 0.0 0.0 0.00 0.00 0.00 88 1021.6
20260902014540 51 271 0.0 0.0 0.00 0.00 0.00 87 1021.7
20260902013034 52 271 0.0 0.0 0.00 0.00 0.00 87 1021.7
20260902011545 52 271 0.0 0.0 0.00 0.00 0.00 87 1021.6
20260902010147 53 0.0 0.0 0.00 0.00 0.00 87 1022.6
20260902010104 52 271 0.0 0.0 0.00 0.00 0.00 87 1021.7
20260902004531 52 271 0.0 0.0 0.00 0.00 0.00 87 1021.7
20260902003029 53 271 0.0 0.0 0.00 0.00 0.00 87 1021.6
20260902001528 53 271 0.0 0.0 0.00 0.00 0.00 87 1021.5
20260902000118 54 0.0 0.0 0.00 0.00 0.00 86 1022.4
20260902000040 53 271 0.0 0.0 0.00 0.00 0.00 86 1021.5
20260901234526 53 271 0.0 0.0 0.00 0.00 0.00 86 1021.4
20260901233027 53 271 0.0 0.0 0.00 0.00 0.00 86 1021.5
20260901231526 53 271 0.0 0.0 0.00 0.00 0.00 85 1021.5
20260901230049 54 0.0 0.0 0.00 0.00 0.00 84 1022.7
20260901230030 53 271 0.0 0.0 0.00 0.00 0.00 85 1021.7
20260901224534 54 271 0.0 0.0 0.00 0.00 0.00 84 1021.6
20260901223041 54 271 0.0 0.0 0.00 0.00 0.00 84 1021.7
20260901221518 54 271 0.0 0.0 0.00 0.00 0.00 83 1021.6
20260901220140 55 0.0 0.0 0.00 0.00 0.00 82 1022.3
20260901220019 55 271 0.0 0.0 0.00 0.00 0.00 83 1021.6
20260901214515 55 271 0.0 0.0 0.00 0.02 0.00 82 1021.5
20260901213014 55 271 0.0 0.0 0.00 0.02 0.00 81 1021.4
20260901211523 56 271 0.0 0.0 0.00 0.02 0.00 81 1021.4
20260901210230 57 0.0 0.0 0.00 0.02 0.00 80 1022.2
20260901210017 56 271 0.0 0.0 0.00 0.02 0.00 81 1021.4
20260901204520 57 271 0.0 0.0 0.00 0.02 0.00 80 1021.2
20260901203011 57 271 0.0 0.0 0.00 0.02 0.00 79 1021.1
20260901201511 58 271 0.0 0.0 0.00 0.02 0.00 78 1021.0
20260901200057 59 0.0 0.0 0.00 0.02 0.00 77 1021.6
20260901200032 58 271 0.0 0.0 0.00 0.02 0.00 78 1021.0
20260901194509 59 271 0.0 0.0 0.00 0.02 0.00 76 1020.8
20260901193008 61 271 0.0 0.0 0.00 0.02 0.00 74 1020.8
20260901191509 61 271 0.0 0.0 0.00 0.02 0.00 74 1020.7
20260901190146 63 0.0 0.0 0.00 0.02 0.00 71 1021.4
20260901190009 62 271 0.0 0.0 0.00 0.02 0.00 72 1020.7
20260901184508 63 271 0.0 1.0 0.00 0.02 0.00 70 1020.6
20260901183006 65 271 0.0 0.0 0.00 0.02 0.00 66 1020.5
20260901181506 66 271 0.0 0.0 0.00 0.02 0.00 65 1020.4
20260901180156 67 0.0 0.0 0.00 0.02 0.00 64 1021.0
20260901180018 66 271 0.0 0.0 0.00 0.02 0.00 64 1020.1
20260901174505 67 271 0.0 1.0 0.00 0.02 0.00 65 1020.0
20260901173004 67 269 0.0 2.0 0.00 0.02 0.00 65 1020.0
20260901171503 68 259 0.0 2.0 0.00 0.02 0.00 64 1020.0
20260901170023 69 0.0 1.0 0.00 0.02 0.00 65 1021.1
20260901170008 68 184 0.0 2.0 0.00 0.02 0.00 64 1019.9
20260901164502 69 222 0.0 4.0 0.00 0.02 0.00 64 1020.1
20260901163007 69 213 0.0 3.0 0.00 0.02 0.00 62 1020.2
20260901161502 69 255 1.0 6.0 0.00 0.02 0.00 62 1020.3
20260901160109 71 248 1.0 2.0 0.00 0.02 0.00 61 1021.3
20260901160000 70 251 1.0 4.0 0.00 0.02 0.00 62 1020.1
20260901154607 71 222 0.0 2.0 0.00 0.02 0.00 62 1020.2
20260901153124 72 277 1.0 3.0 0.00 0.02 0.00 57 1020.1
20260901151559 73 265 0.0 4.0 0.00 0.02 0.00 59 1020.1
20260901150058 73 241 0.0 3.0 0.00 0.02 0.00 60 1020.1
20260901150040 75 225 1.0 3.0 0.00 0.02 0.00 57 1021.7
20260901144559 75 275 1.0 4.0 0.00 0.02 0.00 57 1020.2
20260901143058 75 294 1.0 5.0 0.00 0.02 0.00 60 1020.3
20260901141556 75 211 2.0 6.0 0.00 0.02 0.00 59 1020.4
20260901140111 75 270 1.0 3.0 0.00 0.02 0.00 57 1021.9
20260901140056 73 241 1.0 5.0 0.00 0.02 0.00 59 1020.5
20260901134555 75 204 3.0 9.0 0.00 0.02 0.00 58 1020.5
20260901133051 74 250 2.0 6.0 0.00 0.02 0.00 63 1020.5
20260901131600 73 254 1.0 4.0 0.00 0.02 0.00 60 1020.7
20260901130059 73 211 4.0 9.0 0.00 0.02 0.00 61 1020.8
20260901130033 73 270 1.0 5.0 0.00 0.02 0.00 61 1022.2
20260901124545 72 242 1.0 6.0 0.00 0.02 0.00 62 1021.0